Location: Antioch Baptist Church
(32.6696°N, 85.7327°W)
Time: 12:18:18
(UTC+00:00)

Cosmos 44 - Pass Details

Date: 14 July 2020
Orbit: 586 x 775 km, 65.1° (Epoch: 08 August)

Event Time Altitude Azimuth Distance (km) Brightness Sun altitude
Rises 02:41:58 0° 216° (SW) 2,800 6.3 -19.7°
Reaches altitude 10° 02:44:13 10° 220° (SW) 1,900 5.5 -20.1°
Maximum altitude 02:48:24 58° 300° (WNW) 690 3.5 -20.7°
Drops below altitude 10° 02:52:41 10° 19° (NNE) 1,940 5.9 -21.3°
Sets 02:55:01 0° 24° (NNE) 2,866 6.8 -21.7°
